Weather Roundup
Issued by NWS Chicago, IL

Home | Current Version | Previous Version | Text Only | Print | Product List | Glossary On
Versions: 1 2 3 4 5 6 7 8 9 10 11 12 13 14 15 16 17 18 19 20 21 22 23 24 25 26 27 28 29 30 31 32 33 34 35 36 37 38 39 40 41 42 43 44 45 46 47 48 49 50
000
NZUS59 KLOT 300503
HRRLOT

CHICAGO AREA WEATHER ROUNDUP
NATIONAL WEATHER SERVICE CHICAGO/ROMEOVILLE IL
1200 AM CDT SUN APR 30 2017

NOTE: "FAIR" INDICATES FEW OR NO CLOUDS BELOW 12,000 FEET WITH NO
SIGNIFICANT WEATHER AND/OR OBSTRUCTIONS TO VISIBILITY.

* THESE STATIONS ARE NOT UNDER NWS QUALITY CONTROL. THEY ALSO MAY NOT
  REPORT WEATHER SUCH AS PRECIPITATION OR FOG.

ILZ005-006-012>014-019>023-300600-
NORTHEAST ILLINOIS

CITY           SKY/WX    TMP DP  RH WIND       PRES   REMARKS
OHARE          LGT RAIN  44  41  89 NE18      29.98R FOG
MIDWAY         LGT RAIN  45  44  97 NE20      29.96F FOG
AURORA         CLOUDY    46  43  89 NE20G32   29.94F FOG
LANSING*       DRIZZLE   47  47 100 E10       29.94F
WAUKEGAN       LGT RAIN  42  42 100 NE16G24   30.05R FOG
DUPAGE AIRPORT LGT RAIN  44  44 100 NE18G28   29.97S FOG
WHEELING       LGT RAIN  42  42 100 NE17G29   30.01F FOG
MORRIS*        CLOUDY    45  43  94 NE7       29.90F
NORTHERLY ISL    N/A     44  43  96 NE23        N/A
$$

WIZ051-052-058>065-066-070>072-300600-
SOUTHEAST WISCONSIN

CITY           SKY/WX    TMP DP  RH WIND       PRES   REMARKS
MILWAUKEE      CLOUDY    42  40  92 NE15      30.11R
KENOSHA*       RAIN      43  41  93 NE12G21   30.09R FOG
RACINE*        LGT RAIN  42  40  92 NE10      30.11R
$$

INZ001>003-010>013-019-020-300600-
NORTHWEST INDIANA

CITY           SKY/WX    TMP DP  RH WIND       PRES   REMARKS
GARY*          DRIZZLE   49  47  95 NE12      29.96F
MICHIGAN CITY* NOT AVBL
RENSSELAER*    NOT AVBL
VALPARAISO     CLOUDY    48  45  89 E12       29.95S
$$

LMZ740>746-300600-
SOUTHERN LAKE MICHIGAN

STATION/POSITION TIME  SKY/WX   TEMP WIND        PRES    VSBY
                                AIR  DIR/SP/G
                 (UTC)          (F)  (DEG/KT/KT) (MB)    (MI)
HARRISON CRIB    0430            44   50/ 24/ 27   N/A
BURNHAM HARBOR   0500            44   40/ 19/ 23   N/A
CALUMET HARBOR   0430            46   20/ 12/ 19 1014.6F
BURNS HARBOR     0440            47   90/ 13/ 20 1014.9F
MICHIGAN CITY    0440            47   60/ 14/ 19   N/A
$$

ABBREVIATIONS USED IN REMARKS
   TC - TEMPERATURE IN CELSIUS
  WCI - WIND CHILL INDEX
   HX - HEAT INDEX
  VSB - VISIBILITY
$$



USA.gov is the U.S. government's official web portal to all federal, state and local government web resources and services.